Location: Unspecified
(0.0000°N, 0.0000°E)
Time: 14:05:20
(UTC+00:00)

Kosmos-2266 - Pass Details

Date: 07 June 2023
Orbit: 945 x 1018 km, 82.9° (Epoch: 22 September)

Event Time Altitude Azimuth Distance (km) Brightness Sun altitude
Rises 19:05:27 0° 192° (SSW) 3,648 8.4 -15.3°
Reaches altitude 10° 19:08:01 10° 196° (SSW) 2,691 7.7 -15.9°
Maximum altitude 19:13:59 55° 273° (W) 1,131 6.2 -17.3°
Drops below altitude 10° 19:19:54 10° 350° (N) 2,655 8.2 -18.6°
Sets 19:22:25 0° 354° (N) 3,596 8.9 -19.2°
